Aeroporto :
LOGIN :

Iscrizione | Disclaimer

   EN    FR    IT 

 










Sommario :    VFR   VFR Marginale   IFR   IFR Intensivo   IFR Molto Intensivo
Visibilità : 
Base nubi : 
>= 8 km
>= 3000ft
5 / 8 km
1000 / 3000 ft
1500m / 5 km
500 / 1000 ft
800 / 1500m
200 / 500 ft
< 800m
< 200 ft
Simboli :   Temporali  Nebbia  Neve Forte  Precipitazioni Forti  Vento > 20 kt
SIGMETs :   Varie  Temporali  Ghiacco  Turbolenza  Onda orograficha  Ceneri Vulcaniche






- Altitudine del aeroporto : 106 ft
- Codice IATA : XDA


LFBY - Dax Seyresse

ULTIMO METAR :
  • 050100Z AUTO 07003KT 030V090 9999 // ////// 10/04 Q1014

METARs OBSOLETI :
  • 050030Z AUTO 06003KT 020V090 9999 // ////// 11/04 Q1014
  • 050000Z AUTO 05004KT 360V090 9999 // ////// 13/04 Q1014
  • 042330Z AUTO 03004KT 9999 // ////// 13/04 Q1014
  • 042300Z AUTO VRB02KT 9999 // ////// 13/04 Q1014
  • 042230Z AUTO 10005KT 9999 // ////// 13/04 Q1014
  • 042200Z AUTO 10003KT 9999 // ////// 15/04 Q1014

Previsioni scadute.



MetMap, La meteo Aeronautica in un colpo d'occhio ! - Copyright ORBIFLY Dicembre 2007 - Disclaimer

ORBIFLY MET'MAP TEAM :

Programmazione e sviluppo : Alexandra Zaïnal
Concezione : Baudouin d'Aumeries
Aiuto per la programmazione : Marc-Olivier Méhu
Supporto tecnico e logistico : Manuel Goepfert
Aiuto per la traduzione : Arnaldo La Scala

Contatto : metmap@orbifly.com




FONTI E CREDITI :

   NOAA